timestamp,wind_dir_avg,wind_spd_avg,wind_spd_max_dir,wind_spd_gust,battery_voltage,lat,long
2022-05-12 00:04:00+00:00,208.0,8.15,209.0,9.42,12.65,47.59359,-54.27349
2022-05-12 00:14:01+00:00,208.0,8.33,216.0,9.75,12.41,47.59359,-54.27349
2022-05-12 00:24:01+00:00,205.0,8.57,217.0,9.59,12.41,47.59359,-54.27349
2022-05-12 00:34:01+00:00,205.0,8.95,217.0,10.25,12.41,47.59359,-54.27349
2022-05-12 00:44:01+00:00,208.0,9.73,209.0,10.39,12.41,47.59359,-54.27349
2022-05-12 00:54:01+00:00,211.0,8.96,210.0,10.02,12.41,47.59359,-54.27349
2022-05-12 01:04:01+00:00,210.0,8.56,210.0,9.58,12.41,47.59359,-54.27349
2022-05-12 01:14:01+00:00,216.0,7.47,216.0,7.97,12.33,47.59359,-54.27349
2022-05-12 01:24:01+00:00,214.0,7.45,222.0,8.5,12.33,47.59359,-54.27349
2022-05-12 01:34:01+00:00,213.0,7.83,213.0,8.94,12.33,47.59359,-54.27349
2022-05-12 01:44:01+00:00,210.0,8.41,211.0,9.48,12.33,47.59359,-54.27349
2022-05-12 01:54:01+00:00,207.0,8.31,208.0,9.26,12.33,47.59359,-54.27349
2022-05-12 02:04:01+00:00,204.0,8.53,204.0,9.19,12.33,47.59359,-54.27349
2022-05-12 02:14:00+00:00,207.0,8.68,202.0,9.61,12.33,47.59359,-54.27349
2022-05-12 02:24:00+00:00,206.0,8.84,207.0,9.7,12.33,47.59359,-54.27349
2022-05-12 02:34:00+00:00,205.0,8.71,209.0,9.71,12.33,47.59359,-54.27349
2022-05-12 02:44:00+00:00,207.0,8.48,208.0,9.75,12.33,47.59359,-54.27349
2022-05-12 02:54:00+00:00,213.0,6.94,225.0,8.64,12.33,47.59359,-54.27349
2022-05-12 03:04:00+00:00,212.0,7.54,221.0,9.2,12.33,47.59359,-54.27349
2022-05-12 03:14:01+00:00,213.0,6.96,223.0,8.23,12.33,47.59359,-54.27349
2022-05-12 03:24:01+00:00,218.0,7.12,224.0,8.42,12.33,47.59359,-54.27349
2022-05-12 03:34:01+00:00,218.0,8.64,217.0,9.42,12.33,47.59359,-54.27349
2022-05-12 03:44:01+00:00,222.0,8.54,222.0,8.97,12.33,47.59359,-54.27349
2022-05-12 03:54:01+00:00,223.0,7.88,224.0,8.7,12.33,47.59359,-54.27349
2022-05-12 04:04:01+00:00,220.0,8.38,223.0,9.15,12.33,47.59359,-54.27349
2022-05-12 04:14:01+00:00,216.0,6.44,235.0,7.77,12.33,47.59359,-54.27349
2022-05-12 04:24:01+00:00,222.0,6.11,232.0,7.7,12.33,47.59359,-54.27349
2022-05-12 04:34:01+00:00,216.0,7.44,217.0,8.9,12.33,47.59359,-54.27349
2022-05-12 04:44:01+00:00,221.0,5.73,233.0,6.92,12.33,47.59359,-54.27349
2022-05-12 04:54:01+00:00,215.0,5.05,225.0,6.21,12.33,47.59359,-54.27349
2022-05-12 05:04:01+00:00,215.0,5.56,218.0,7.09,12.33,47.59359,-54.27349
2022-05-12 05:14:01+00:00,214.0,6.73,215.0,7.64,12.25,47.59359,-54.27349
2022-05-12 05:24:01+00:00,202.0,6.68,215.0,7.77,12.25,47.59359,-54.27349
2022-05-12 05:34:01+00:00,212.0,7.8,209.0,8.57,12.25,47.59359,-54.27349
2022-05-12 05:44:01+00:00,209.0,7.25,214.0,8.17,12.25,47.59359,-54.27349
2022-05-12 05:54:01+00:00,215.0,6.63,216.0,7.28,12.25,47.59359,-54.27349
2022-05-12 06:04:01+00:00,228.0,5.65,237.0,7.53,12.25,47.59359,-54.27349
2022-05-12 06:14:00+00:00,231.0,6.71,233.0,8.09,12.25,47.59359,-54.27349
2022-05-12 06:24:00+00:00,241.0,6.59,242.0,7.39,12.25,47.59359,-54.27349
2022-05-12 06:34:00+00:00,246.0,6.36,253.0,7.94,12.25,47.59359,-54.27349
2022-05-12 06:44:00+00:00,245.0,5.7,246.0,6.64,12.25,47.59359,-54.27349
2022-05-12 06:54:00+00:00,232.0,5.96,241.0,6.88,12.25,47.59359,-54.27349
2022-05-12 07:04:00+00:00,238.0,6.45,240.0,6.84,12.25,47.59359,-54.27349
2022-05-12 07:14:01+00:00,231.0,4.5,242.0,6.03,12.17,47.59359,-54.27349
2022-05-12 07:24:01+00:00,233.0,5.3,238.0,7.6,12.17,47.59359,-54.27349
2022-05-12 07:34:01+00:00,207.0,3.54,237.0,5.78,12.17,47.59359,-54.27349
2022-05-12 07:44:01+00:00,222.0,7.02,215.0,8.66,12.17,47.59359,-54.27349
2022-05-12 07:54:01+00:00,315.0,0.01,224.0,0.0,12.17,47.59359,-54.27349
2022-05-12 08:04:01+00:00,315.0,0.01,224.0,0.0,12.17,47.59359,-54.27349
2022-05-12 08:14:00+00:00,315.0,0.01,224.0,0.0,12.17,47.59359,-54.27349
2022-05-12 08:24:00+00:00,187.0,4.02,203.0,4.41,12.17,47.59359,-54.27349
2022-05-12 08:34:00+00:00,227.0,5.29,232.0,6.22,12.17,47.59359,-54.27349
2022-05-12 08:44:00+00:00,228.0,5.46,233.0,6.28,12.17,47.59359,-54.27349
2022-05-12 08:54:00+00:00,238.0,6.84,238.0,7.17,12.17,47.59359,-54.27349
2022-05-12 09:04:00+00:00,240.0,7.01,240.0,7.39,12.17,47.59359,-54.27349
2022-05-12 09:14:01+00:00,237.0,6.62,238.0,7.07,12.17,47.59359,-54.27349
2022-05-12 09:24:01+00:00,235.0,5.75,237.0,6.28,12.17,47.59359,-54.27349
2022-05-12 09:34:01+00:00,227.0,5.76,230.0,6.6,12.17,47.59359,-54.27349
2022-05-12 09:44:01+00:00,228.0,7.02,228.0,7.62,12.17,47.59359,-54.27349
2022-05-12 09:54:01+00:00,233.0,7.75,234.0,8.19,12.17,47.59359,-54.27349
2022-05-12 10:04:01+00:00,232.0,7.65,233.0,8.26,12.17,47.59359,-54.27349
2022-05-12 10:14:01+00:00,235.0,7.4,233.0,8.25,12.73,47.59359,-54.27349
2022-05-12 10:24:01+00:00,238.0,6.56,238.0,7.04,12.73,47.59359,-54.27349
2022-05-12 10:34:01+00:00,244.0,5.94,248.0,6.66,12.73,47.59359,-54.27349
2022-05-12 10:44:01+00:00,228.0,5.3,234.0,6.05,12.73,47.59359,-54.27349
2022-05-12 10:54:01+00:00,183.0,6.62,183.0,7.01,12.73,47.59359,-54.27349
2022-05-12 11:04:01+00:00,200.0,4.5,226.0,6.37,12.73,47.59359,-54.27349
2022-05-12 11:14:00+00:00,224.0,7.47,230.0,8.34,13.21,47.59359,-54.27349
2022-05-12 11:24:00+00:00,219.0,8.05,220.0,8.47,13.21,47.59359,-54.27349
2022-05-12 11:34:00+00:00,186.0,8.46,200.0,9.54,13.21,47.59359,-54.27349
2022-05-12 11:44:00+00:00,209.0,9.76,211.0,10.71,13.21,47.59359,-54.27349
2022-05-12 11:54:00+00:00,228.0,5.78,221.0,6.55,13.21,47.59359,-54.27349
2022-05-12 12:04:00+00:00,268.0,4.17,270.0,4.67,13.21,47.59359,-54.27349
2022-05-12 12:14:01+00:00,229.0,7.07,231.0,7.57,13.6,47.59359,-54.27349
2022-05-12 12:24:01+00:00,186.0,5.22,223.0,6.48,13.6,47.59359,-54.27349
2022-05-12 12:34:01+00:00,231.0,5.09,235.0,6.48,13.6,47.59359,-54.27349
2022-05-12 12:44:01+00:00,229.0,5.45,239.0,6.74,13.6,47.59359,-54.27349
2022-05-12 12:54:01+00:00,182.0,4.14,184.0,4.48,13.6,47.59359,-54.27349
2022-05-12 13:04:01+00:00,216.0,5.04,225.0,6.12,13.6,47.59359,-54.27349
2022-05-12 13:14:01+00:00,235.0,5.78,242.0,7.36,13.6,47.59359,-54.27349
2022-05-12 13:24:01+00:00,213.0,7.03,221.0,7.98,13.6,47.59359,-54.27349
2022-05-12 13:34:01+00:00,240.0,7.05,237.0,8.81,13.6,47.59359,-54.27349
2022-05-12 13:44:01+00:00,263.0,7.85,263.0,9.96,13.6,47.59359,-54.27349
2022-05-12 13:54:01+00:00,260.0,5.14,262.0,6.07,13.6,47.59359,-54.27349
2022-05-12 14:04:01+00:00,235.0,6.99,238.0,7.64,13.6,47.59359,-54.27349
2022-05-12 14:14:01+00:00,234.0,6.78,235.0,7.32,13.68,47.59359,-54.27349
2022-05-12 14:24:01+00:00,232.0,7.12,229.0,8.22,13.68,47.59359,-54.27349
2022-05-12 14:34:01+00:00,228.0,6.84,229.0,7.6,13.68,47.59359,-54.27349
2022-05-12 14:44:01+00:00,227.0,7.03,229.0,7.71,13.68,47.59359,-54.27349
2022-05-12 14:54:01+00:00,219.0,8.17,221.0,8.81,13.68,47.59359,-54.27349
2022-05-12 15:04:01+00:00,217.0,7.23,224.0,8.17,13.68,47.59359,-54.27349
2022-05-12 15:14:00+00:00,210.0,8.03,218.0,9.05,14.32,47.59359,-54.27349
2022-05-12 15:24:00+00:00,205.0,8.83,215.0,9.46,14.32,47.59359,-54.27349
2022-05-12 15:34:00+00:00,214.0,10.49,214.0,11.13,14.32,47.59359,-54.27349
2022-05-12 15:44:00+00:00,207.0,8.72,215.0,9.53,14.32,47.59359,-54.27349
2022-05-12 15:54:00+00:00,206.0,8.52,215.0,9.21,14.32,47.59359,-54.27349
2022-05-12 16:04:00+00:00,206.0,8.59,215.0,10.59,14.32,47.59359,-54.27349
2022-05-12 16:14:00+00:00,213.0,10.09,214.0,11.1,13.68,47.59359,-54.27349
2022-05-12 16:24:00+00:00,211.0,10.24,212.0,11.1,13.68,47.59359,-54.27349
2022-05-12 16:34:00+00:00,210.0,10.16,212.0,11.24,13.68,47.59359,-54.27349
2022-05-12 16:44:00+00:00,203.0,9.85,210.0,10.88,13.68,47.59359,-54.27349
2022-05-12 16:54:00+00:00,210.0,11.13,212.0,12.38,13.68,47.59359,-54.27349
2022-05-12 17:04:00+00:00,206.0,10.07,214.0,11.75,13.68,47.59359,-54.27349
2022-05-12 17:14:00+00:00,210.0,11.15,209.0,13.05,14.32,47.59359,-54.27349
2022-05-12 17:24:00+00:00,210.0,11.04,215.0,12.05,14.32,47.59359,-54.27349
2022-05-12 17:34:00+00:00,207.0,11.21,210.0,12.83,14.32,47.59359,-54.27349
2022-05-12 17:44:00+00:00,207.0,10.15,213.0,11.45,14.32,47.59359,-54.27349
2022-05-12 17:54:00+00:00,206.0,9.66,205.0,10.98,14.32,47.59359,-54.27349
2022-05-12 18:04:00+00:00,207.0,9.92,208.0,10.75,14.32,47.59359,-54.27349
2022-05-12 19:14:00+00:00,216.0,8.95,218.0,9.74,13.68,47.59359,-54.27349
2022-05-12 19:24:00+00:00,214.0,7.28,213.0,8.09,13.68,47.59359,-54.27349
2022-05-12 19:34:00+00:00,217.0,8.91,217.0,10.05,13.68,47.59359,-54.27349
2022-05-12 19:44:00+00:00,214.0,7.61,214.0,8.49,13.68,47.59359,-54.27349
2022-05-12 19:54:00+00:00,217.0,5.68,226.0,6.46,13.68,47.59359,-54.27349
2022-05-12 20:04:00+00:00,219.0,5.55,227.0,6.49,13.68,47.59359,-54.27349
2022-05-12 20:14:01+00:00,227.0,5.34,225.0,5.87,13.76,47.59359,-54.27349
2022-05-12 20:24:01+00:00,227.0,5.43,222.0,5.97,13.76,47.59359,-54.27349
2022-05-12 20:34:01+00:00,261.0,5.53,256.0,8.97,13.76,47.59359,-54.27349
2022-05-12 20:44:01+00:00,296.0,8.53,297.0,9.31,13.76,47.59359,-54.27349
2022-05-12 20:54:01+00:00,60.0,8.59,64.0,11.2,13.76,47.59359,-54.27349
2022-05-12 21:04:01+00:00,63.0,7.34,68.0,10.21,13.76,47.59359,-54.27349
2022-05-12 21:14:01+00:00,107.0,7.37,106.0,10.52,13.53,47.59359,-54.27349
2022-05-12 21:24:01+00:00,101.0,4.37,102.0,9.79,13.53,47.59359,-54.27349
2022-05-12 21:34:01+00:00,103.0,5.01,106.0,9.86,13.53,47.59359,-54.27349
2022-05-12 21:44:01+00:00,110.0,3.59,82.0,7.22,13.53,47.59359,-54.27349
2022-05-12 21:54:01+00:00,104.0,2.66,123.0,4.76,13.53,47.59359,-54.27349
2022-05-12 22:04:01+00:00,94.0,3.21,90.0,6.31,13.53,47.59359,-54.27349
2022-05-12 22:14:01+00:00,70.0,5.36,75.0,10.08,13.37,47.59359,-54.27349
2022-05-12 22:24:01+00:00,73.0,7.35,73.0,10.38,13.37,47.59359,-54.27349
2022-05-12 22:34:01+00:00,77.0,4.99,82.0,9.53,13.37,47.59359,-54.27349
2022-05-12 22:44:01+00:00,73.0,6.27,77.0,8.12,13.37,47.59359,-54.27349
2022-05-12 22:54:01+00:00,78.0,5.22,92.0,8.2,13.37,47.59359,-54.27349
2022-05-12 23:04:01+00:00,78.0,5.83,65.0,7.79,13.37,47.59359,-54.27349
2022-05-12 23:14:01+00:00,75.0,6.93,63.0,9.08,12.89,47.59359,-54.27349
2022-05-12 23:24:01+00:00,74.0,5.46,63.0,8.31,12.89,47.59359,-54.27349
2022-05-12 23:34:01+00:00,77.0,5.74,75.0,7.94,12.89,47.59359,-54.27349
2022-05-12 23:44:01+00:00,71.0,6.28,72.0,8.19,12.89,47.59359,-54.27349
2022-05-12 23:54:01+00:00,81.0,5.12,84.0,8.16,12.89,47.59359,-54.27349
